This is the latest recevied weather packets stored in our database for station/object KE0PRS. If no packets are shown the sender has not sent any weather packets the latest 10 day(s).
| Time | Temp. | Humidity | Pressure | Rain* | Wind** | Luminosity | Snow |
|---|---|---|---|---|---|---|---|
| 1787492718 | 21.67° C | 81% | 1021.7 hPa | 0 mm | - | 119 W/m² | - |
| 1787492414 | 21.67° C | 80% | 1021.8 hPa | 0 mm | - | 118 W/m² | - |
| 1787492114 | 21.11° C | 81% | 1021.6 hPa | 0 mm | - | 155 W/m² | - |
| 1787491810 | 20.56° C | 84% | 1021.5 hPa | 0 mm | - | 175 W/m² | - |
| 1787491505 | 20° C | 86% | 1021.6 hPa | 0 mm | - | 150 W/m² | - |
| 1787491200 | 20° C | 87% | 1021.7 hPa | 0 mm | - | 116 W/m² | - |
| 1787490896 | 19.44° C | 88% | 1021.7 hPa | 0 mm | - | 87 W/m² | - |
| 1787490595 | 19.44° C | 88% | 1021.6 hPa | 0 mm | - | 73 W/m² | - |
| 1787490290 | 19.44° C | 89% | 1021.5 hPa | 0 mm | - | 61 W/m² | - |
| 1787489989 | 19.44° C | 89% | 1021.4 hPa | 0 mm | - | 51 W/m² | - |
| 1787489684 | 18.89° C | 89% | 1021.5 hPa | 0 mm | - | 41 W/m² | - |
| 1787489380 | 18.89° C | 89% | 1021.4 hPa | 0 mm | - | 33 W/m² | - |
| 1787489076 | 18.89° C | 90% | 1021.3 hPa | 0 mm | - | 25 W/m² | - |
| 1787488771 | 18.89° C | 89% | 1021.2 hPa | 0 mm | - | 20 W/m² | - |
| 1787488467 | 18.89° C | 90% | 1021.2 hPa | 0 mm | - | 16 W/m² | - |
| 1787488166 | 18.89° C | 90% | 1021.1 hPa | 0 mm | - | 13 W/m² | - |
| 1787487865 | 18.89° C | 90% | 1021 hPa | 0 mm | - | 11 W/m² | - |
| 1787487562 | 18.89° C | 90% | 1021.1 hPa | 0 mm | - | 9 W/m² | - |
| 1787487258 | 18.89° C | 89% | 1021.2 hPa | 0 mm | - | 7 W/m² | - |
| 1787486954 | 18.89° C | 90% | 1020.9 hPa | 0 mm | - | 4 W/m² | - |
| 1787486648 | 18.89° C | 89% | 1021.1 hPa | 0 mm | - | 3 W/m² | - |
| 1787486347 | 18.89° C | 89% | 1021 hPa | 0 mm | - | 2 W/m² | - |
| 1787486042 | 18.89° C | 89% | 1020.8 hPa | 0 mm | - | 1 W/m² | - |
| 1787485738 | 18.89° C | 89% | 1020.9 hPa | 0 mm | - | 0 W/m² | - |
| 1787485434 | 18.89° C | 89% | 1020.6 hPa | 0 mm | - | 0 W/m² | - |
* Rain latest hour (hover to see other rain measurements)
** Current wind speed in m/s (hover to see current wind gust speed)